When you browse on this site, cookies collect data to enhance your experience and personalize the content and advertising you see.
Visit our Privacy Policy to learn more. By continuing to use the site, you agree to this use of cookies and data.
  • în România
  • Lista ţărilor
  • Pe 7 zile
  • Temperatura apei
  • Hartă satelitară
  • Meteo pe hartă
  • Widget-uri
  • user-avatar
    Intrare

    Meteo pe oră la Tolido

    Astăzi, 20 Februarie, Miercuri

    Timp Temperatura Precipitaţii Vânt Presiune Umiditate
    00:00 -6°C° 0 mm 3 m/s 756 mmHg 80%
    01:00 -7°C° 0 mm 4 m/s 755 mmHg 79%
    02:00 -5°C° 0 mm 4 m/s 754 mmHg 79%
    03:00 -6°C° 0 mm 5 m/s 753 mmHg 78%
    04:00 -6°C° 0.3 mm 5 m/s 752 mmHg 81%
    05:00 -8°C° 0.3 mm 6 m/s 751 mmHg 85%
    06:00 -8°C° 0.3 mm 7 m/s 751 mmHg 88%
    07:00 -7°C° 0.7 mm 7 m/s 750 mmHg 89%
    08:00 -7°C° 0.7 mm 7 m/s 749 mmHg 91%
    09:00 -7°C° 0.7 mm 7 m/s 748 mmHg 92%
    10:00 -6°C° 0.1 mm 7 m/s 747 mmHg 92%
    11:00 -4°C° 0.1 mm 7 m/s 745 mmHg 91%
    12:00 -3°C° 0.1 mm 6 m/s 744 mmHg 91%
    13:00 -2°C° 0.5 mm 6 m/s 743 mmHg 93%
    14:00 -1°C° 0.5 mm 5 m/s 741 mmHg 95%
    15:00 0°C° 0.5 mm 4 m/s 740 mmHg 97%
    16:00 +1°C° 0.7 mm 4 m/s 739 mmHg 97%
    17:00 +1°C° 0.7 mm 4 m/s 738 mmHg 97%
    18:00 +1°C° 0.7 mm 4 m/s 738 mmHg 98%
    19:00 +2°C° 0.1 mm 5 m/s 738 mmHg 96%
    20:00 +2°C° 0.1 mm 6 m/s 738 mmHg 95%
    21:00 +2°C° 0.1 mm 8 m/s 739 mmHg 93%
    22:00 +1°C° 0 mm 8 m/s 740 mmHg 90%
    23:00 0°C° 0 mm 8 m/s 741 mmHg 87%

    Mâine, 21 Februarie, Joi

    Timp Temperatura Precipitaţii Vânt Presiune Umiditate
    00:00 -1°C° 0 mm 8 m/s 742 mmHg 84%
    01:00 -2°C° 0 mm 7 m/s 742 mmHg 83%
    02:00 -2°C° 0 mm 7 m/s 743 mmHg 82%
    03:00 -3°C° 0 mm 6 m/s 743 mmHg 81%
    04:00 -3°C° 0 mm 6 m/s 744 mmHg 82%
    05:00 -4°C° 0 mm 6 m/s 744 mmHg 83%
    06:00 -4°C° 0 mm 5 m/s 745 mmHg 85%
    07:00 -4°C° 0 mm 6 m/s 746 mmHg 82%
    08:00 -4°C° 0 mm 6 m/s 747 mmHg 80%
    09:00 -3°C° 0 mm 6 m/s 747 mmHg 77%
    10:00 -3°C° 0 mm 6 m/s 748 mmHg 76%
    11:00 -2°C° 0 mm 6 m/s 748 mmHg 74%
    12:00 -2°C° 0 mm 6 m/s 749 mmHg 73%
    13:00 0°C° 0 mm 5 m/s 749 mmHg 71%
    14:00 0°C° 0 mm 5 m/s 749 mmHg 70%
    15:00 0°C° 0 mm 5 m/s 749 mmHg 69%
    16:00 -1°C° 0 mm 4 m/s 750 mmHg 72%
    17:00 0°C° 0 mm 3 m/s 750 mmHg 76%
    18:00 -1°C° 0 mm 3 m/s 751 mmHg 80%
    19:00 -1°C° 0 mm 2 m/s 751 mmHg 80%
    20:00 -2°C° 0 mm 2 m/s 752 mmHg 80%
    21:00 -2°C° 0 mm 2 m/s 752 mmHg 81%
    22:00 -2°C° 0 mm 2 m/s 753 mmHg 81%
    23:00 -2°C° 0 mm 2 m/s 753 mmHg 82%

    Poimâine, 22 Februarie, Vineri

    Timp Temperatura Precipitaţii Vânt Presiune Umiditate
    00:00 -1°C° 0 mm 1 m/s 753 mmHg 82%
    01:00 -3°C° 0 mm 2 m/s 754 mmHg 82%
    02:00 -3°C° 0 mm 2 m/s 754 mmHg 83%
    03:00 -3°C° 0 mm 2 m/s 754 mmHg 83%
    04:00 -1°C° 0 mm 1 m/s 754 mmHg 84%
    05:00 -2°C° 0 mm 1 m/s 755 mmHg 85%
    06:00 -2°C° 0 mm 1 m/s 755 mmHg 86%
    07:00 -1°C° 0 mm 1 m/s 756 mmHg 81%
    08:00 0°C° 0 mm 1 m/s 756 mmHg 77%
    09:00 +1°C° 0 mm 1 m/s 757 mmHg 73%
    10:00 +1°C° 0 mm 2 m/s 756 mmHg 69%
    11:00 +1°C° 0 mm 2 m/s 756 mmHg 65%
    12:00 +2°C° 0 mm 2 m/s 756 mmHg 61%
    13:00 +2°C° 0 mm 2 m/s 755 mmHg 62%
    14:00 +3°C° 0 mm 2 m/s 755 mmHg 63%
    15:00 +2°C° 0 mm 3 m/s 755 mmHg 64%
    16:00 +1°C° 0 mm 3 m/s 754 mmHg 70%
    17:00 0°C° 0 mm 3 m/s 754 mmHg 77%
    18:00 -2°C° 0 mm 3 m/s 754 mmHg 83%
    19:00 -2°C° 0 mm 3 m/s 754 mmHg 83%
    20:00 -1°C° 0 mm 3 m/s 754 mmHg 83%
    21:00 -1°C° 0 mm 3 m/s 753 mmHg 83%
    22:00 -1°C° 0 mm 3 m/s 753 mmHg 83%
    23:00 -1°C° 0 mm 3 m/s 752 mmHg 83%

    23 Februarie, Sâmbătă

    Timp Temperatura Precipitaţii Vânt Presiune Umiditate
    00:00 -1°C° 0 mm 3 m/s 751 mmHg 83%
    01:00 -1°C° 0 mm 3 m/s 751 mmHg 82%
    02:00 -1°C° 0 mm 3 m/s 750 mmHg 81%
    03:00 -1°C° 0 mm 2 m/s 749 mmHg 80%
    04:00 -1°C° 0.8 mm 3 m/s 749 mmHg 82%
    05:00 0°C° 0.8 mm 3 m/s 748 mmHg 85%
    06:00 0°C° 0.8 mm 3 m/s 747 mmHg 87%
    07:00 +1°C° 0.6 mm 3 m/s 747 mmHg 89%
    08:00 +2°C° 0.6 mm 3 m/s 746 mmHg 91%
    09:00 +3°C° 0.6 mm 3 m/s 746 mmHg 92%
    10:00 +4°C° 0 mm 3 m/s 745 mmHg 92%
    11:00 +7°C° 0 mm 3 m/s 744 mmHg 92%
    12:00 +8°C° 0 mm 3 m/s 743 mmHg 92%
    13:00 +8°C° 0.2 mm 3 m/s 742 mmHg 93%
    14:00 +8°C° 0.2 mm 3 m/s 741 mmHg 94%
    15:00 +7°C° 0.2 mm 3 m/s 740 mmHg 96%
    16:00 +8°C° 1 mm 3 m/s 738 mmHg 96%
    17:00 +7°C° 1 mm 4 m/s 737 mmHg 96%
    18:00 +7°C° 1 mm 4 m/s 736 mmHg 96%
    19:00 +8°C° 3.8 mm 5 m/s 734 mmHg 96%
    20:00 +8°C° 3.8 mm 6 m/s 733 mmHg 95%
    21:00 +8°C° 3.8 mm 7 m/s 731 mmHg 94%
    22:00 +10°C° 0.5 mm 7 m/s 730 mmHg 94%
    23:00 +11°C° 0.5 mm 7 m/s 728 mmHg 93%

    24 Februarie, Duminică

    Timp Temperatura Precipitaţii Vânt Presiune Umiditate
    00:00 +12°C° 0.5 mm 7 m/s 727 mmHg 93%
    01:00 +10°C° 0.1 mm 8 m/s 726 mmHg 85%
    02:00 +9°C° 0.1 mm 8 m/s 726 mmHg 76%
    03:00 +6°C° 0.1 mm 9 m/s 726 mmHg 68%
    04:00 +6°C° 0.1 mm 10 m/s 725 mmHg 70%
    05:00 +4°C° 0.1 mm 12 m/s 725 mmHg 71%
    06:00 +3°C° 0.1 mm 13 m/s 725 mmHg 73%
    07:00 +1°C° 0 mm 14 m/s 726 mmHg 72%
    08:00 +1°C° 0 mm 14 m/s 727 mmHg 71%
    09:00 +1°C° 0 mm 15 m/s 727 mmHg 70%
    10:00 +1°C° 0.1 mm 14 m/s 729 mmHg 69%
    11:00 +1°C° 0.1 mm 14 m/s 731 mmHg 68%
    12:00 +1°C° 0.1 mm 14 m/s 732 mmHg 67%
    13:00 0°C° 0.1 mm 13 m/s 734 mmHg 67%
    14:00 -1°C° 0.1 mm 13 m/s 735 mmHg 68%
    15:00 -1°C° 0.1 mm 13 m/s 737 mmHg 68%
    16:00 -2°C° 0 mm 12 m/s 738 mmHg 68%
    17:00 -2°C° 0 mm 11 m/s 739 mmHg 68%
    18:00 -2°C° 0 mm 11 m/s 740 mmHg 68%
    19:00 -3°C° 0 mm 10 m/s 741 mmHg 69%
    20:00 -3°C° 0 mm 9 m/s 742 mmHg 70%
    21:00 -3°C° 0 mm 9 m/s 743 mmHg 70%
    22:00 -4°C° 0 mm 9 m/s 744 mmHg 70%
    23:00 -4°C° 0 mm 8 m/s 745 mmHg 70%

    25 Februarie, Luni

    Timp Temperatura Precipitaţii Vânt Presiune Umiditate
    00:00 -5°C° 0 mm 8 m/s 746 mmHg 69%
    01:00 -5°C° 0 mm 8 m/s 747 mmHg 68%
    02:00 -5°C° 0 mm 8 m/s 748 mmHg 66%
    03:00 -6°C° 0 mm 8 m/s 749 mmHg 64%
    04:00 -7°C° 0 mm 7 m/s 750 mmHg 64%
    05:00 -6°C° 0 mm 6 m/s 751 mmHg 63%
    06:00 -8°C° 0 mm 6 m/s 752 mmHg 63%
    07:00 -6°C° 0 mm 6 m/s 753 mmHg 60%
    08:00 -6°C° 0 mm 5 m/s 754 mmHg 57%
    09:00 -5°C° 0 mm 5 m/s 755 mmHg 54%
    10:00 -4°C° 0 mm 5 m/s 755 mmHg 53%
    11:00 -4°C° 0 mm 5 m/s 755 mmHg 51%
    12:00 -2°C° 0 mm 4 m/s 756 mmHg 49%
    13:00 -2°C° 0 mm 4 m/s 756 mmHg 50%
    14:00 -2°C° 0 mm 4 m/s 756 mmHg 50%
    15:00 0°C° 0 mm 3 m/s 756 mmHg 51%
    16:00 -1°C° 0 mm 2 m/s 756 mmHg 54%
    17:00 -2°C° 0 mm 2 m/s 756 mmHg 58%
    18:00 -1°C° 0 mm 1 m/s 757 mmHg 62%
    19:00 -1°C° 0 mm 1 m/s 757 mmHg 62%
    20:00 -1°C° 0 mm 1 m/s 757 mmHg 63%
    21:00 -1°C° 0 mm 1 m/s 757 mmHg 63%
    22:00 -3°C° 0 mm 2 m/s 757 mmHg 64%
    23:00 -4°C° 0 mm 3 m/s 757 mmHg 65%
    Arată mai mult